DW4063 Weather Reports


Display with metric or nautical units.
time (UTC)temp
F
wind
direction
speed
MPH
gust
MPH
rain 1hr
in
rain 24hr
in
rain mn
in
humidity
%
barometer
mb
20210614130120 66 341 1.0 0.0 0.00 0.00 0.00 77 1011.6
20210614124551 65 313 0.0 0.0 0.00 0.00 0.00 79 1011.4
20210614123040 64 304 1.0 0.0 0.00 0.00 0.00 80 1011.1
20210614121535 64 346 1.0 0.0 0.00 0.00 0.00 80 1010.9
20210614120057 64 316 1.0 0.0 0.00 0.00 0.00 81 1010.4
20210614114521 65 306 1.0 0.0 0.00 0.00 0.00 79 1010.2
20210614113025 66 308 1.0 0.0 0.00 0.00 0.00 78 1010.0
20210614111505 67 15 0.0 0.0 0.00 0.00 0.00 73 1009.9
20210614110004 67 275 0.0 0.0 0.00 0.00 0.00 70 1009.3
20210614104504 68 275 0.0 0.0 0.00 0.00 0.00 68 1009.2
20210614101618 69 275 0.0 0.0 0.00 0.00 0.00 65 1008.8
20210614100251 70 275 1.0 0.0 0.00 0.00 0.00 63 1008.6
20210614094714 71 272 1.0 0.0 0.00 0.00 0.00 61 1008.7
20210614093157 72 268 1.0 0.0 0.00 0.00 0.00 60 1008.3
20210614091722 73 219 1.0 0.0 0.00 0.00 0.00 58 1008.2
20210614090353 73 252 1.0 0.0 0.00 0.00 0.00 56 1008.2
20210614084644 73 247 2.0 0.0 0.00 0.00 0.00 56 1008.0
20210614083206 73 223 2.0 0.0 0.00 0.00 0.00 58 1007.9
20210614081758 72 259 2.0 0.0 0.00 0.00 0.00 60 1007.9
20210614080234 71 278 1.0 0.0 0.00 0.00 0.00 62 1007.9
20210614074735 71 278 1.0 0.0 0.00 0.00 0.00 65 1008.1
20210614073109 69 306 0.0 0.0 0.00 0.00 0.00 69 1008.1
20210614071552 69 309 0.0 0.0 0.00 0.00 0.00 70 1008.2
20210614070101 69 309 0.0 0.0 0.00 0.00 0.00 70 1008.5
20210614064631 68 309 0.0 0.0 0.00 0.00 0.00 70 1008.8
20210614063321 69 309 0.0 0.0 0.00 0.00 0.00 70 1008.9
20210614061628 69 309 0.0 0.0 0.00 0.00 0.00 68 1009.0
20210614060148 70 309 0.0 0.0 0.00 0.00 0.00 67 1009.1
20210614054634 69 309 0.0 0.0 0.00 0.00 0.00 68 1009.2
20210614053048 69 309 0.0 0.0 0.00 0.00 0.00 70 1009.3
20210614051606 69 309 0.0 0.0 0.00 0.00 0.00 70 1009.5
20210614050049 68 309 0.0 0.0 0.00 0.00 0.00 70 1009.8
20210614044540 68 309 0.0 0.0 0.00 0.00 0.00 70 1009.9
20210614043032 68 309 0.0 0.0 0.00 0.00 0.00 70 1010.1
20210614041547 68 309 0.0 0.0 0.00 0.00 0.00 71 1010.2
20210614040144 68 309 0.0 0.0 0.00 0.00 0.00 68 1010.4
20210614034536 68 309 0.0 0.0 0.00 0.00 0.00 70 1010.7
20210614033108 69 309 0.0 0.0 0.00 0.00 0.00 72 1010.8
20210614031610 69 309 0.0 0.0 0.00 0.00 0.00 70 1010.9
20210614030010 70 309 0.0 0.0 0.00 0.00 0.00 74 1010.7
20210614024508 70 309 0.0 0.0 0.00 0.00 0.00 70 1010.8
20210614023012 71 309 0.0 0.0 0.00 0.00 0.00 69 1010.8
20210614021531 73 309 0.0 0.0 0.00 0.00 0.00 67 1010.7
20210614020034 73 309 0.0 0.0 0.00 0.00 0.00 56 1010.6
20210614014521 74 309 0.0 0.0 0.00 0.00 0.00 57 1010.5
20210614013015 75 309 0.0 0.0 0.00 0.00 0.00 56 1010.4
20210614011505 77 309 0.0 0.0 0.00 0.00 0.00 54 1010.4
20210614010034 79 309 0.0 0.0 0.00 0.00 0.00 55 1010.4
20210614004512 81 309 0.0 0.0 0.00 0.00 0.00 46 1010.4
20210614003027 82 309 0.0 0.0 0.00 0.00 0.00 45 1010.2
20210614001511 84 309 0.0 0.0 0.00 0.00 0.00 41 1010.4
20210614000002 87 309 0.0 0.0 0.00 0.00 0.00 46 1010.4
20210613234503 87 309 1.0 0.0 0.00 0.00 0.00 33 1010.4
20210613233000 88 309 2.0 0.0 0.00 0.00 0.00 31 1010.4
20210613231630 88 308 1.0 0.0 0.00 0.00 0.00 32 1010.5
20210613230239 88 308 1.0 0.0 0.00 0.00 0.00 33 1010.5
20210613224734 88 308 0.0 0.0 0.00 0.00 0.00 32 1010.5
20210613223201 87 308 0.0 0.0 0.00 0.00 0.00 33 1010.6
20210613221844 88 308 1.0 0.0 0.00 0.00 0.00 32 1010.8
20210613220218 88 306 0.0 0.0 0.00 0.00 0.00 34 1011.0
20210613214619 88 306 1.0 0.0 0.00 0.00 0.00 33 1011.2
20210613213156 88 306 2.0 0.0 0.00 0.00 0.00 34 1011.2
20210613211628 88 302 2.0 0.0 0.00 0.00 0.00 35 1011.3
20210613210133 88 296 0.0 0.0 0.00 0.00 0.00 39 1011.5
20210613204648 87 296 0.0 0.0 0.00 0.00 0.00 40 1011.7
20210613203107 86 296 1.0 0.0 0.00 0.00 0.00 38 1011.8
20210613201615 87 296 0.0 0.0 0.00 0.00 0.00 41 1012.0
20210613200207 86 296 1.0 0.0 0.00 0.00 0.00 39 1012.2
20210613194644 86 296 1.0 0.0 0.00 0.00 0.00 39 1012.3
20210613193212 86 293 1.0 0.0 0.00 0.00 0.00 39 1012.4
20210613191626 85 313 2.0 0.0 0.00 0.00 0.00 42 1012.6
20210613190137 85 304 2.0 0.0 0.00 0.00 0.00 43 1012.7
20210613184642 84 304 1.0 0.0 0.00 0.00 0.00 40 1012.9
20210613183109 84 316 2.0 0.0 0.00 0.00 0.00 40 1012.9
20210613181630 84 316 2.0 0.0 0.00 0.00 0.00 42 1013.0
20210613180052 83 292 1.0 0.0 0.00 0.00 0.00 45 1013.2
20210613174620 83 314 1.0 0.0 0.00 0.00 0.00 44 1013.2
20210613173123 83 313 2.0 0.0 0.00 0.00 0.00 45 1013.3
20210613171558 83 315 2.0 0.0 0.00 0.00 0.00 46 1013.4
20210613170055 82 310 2.0 0.0 0.00 0.00 0.00 48 1013.5
20210613164600 82 238 1.0 0.0 0.00 0.00 0.00 49 1013.7
20210613163207 82 237 0.0 0.0 0.00 0.00 0.00 47 1013.8
20210613161625 82 237 1.0 0.0 0.00 0.00 0.00 46 1013.7
20210613160047 82 222 0.0 0.0 0.00 0.00 0.00 49 1013.7
20210613154542 81 222 0.0 0.0 0.00 0.00 0.00 50 1013.5
20210613153054 81 216 0.0 0.0 0.00 0.00 0.00 53 1013.3
20210613151623 80 215 1.0 0.0 0.00 0.00 0.00 57 1013.3
20210613150049 79 215 1.0 0.0 0.00 0.00 0.00 60 1013.4
20210613144520 79 215 0.0 0.0 0.00 0.00 0.00 63 1013.4
20210613143013 78 215 0.0 0.0 0.00 0.00 0.00 67 1013.4
20210613141507 77 215 0.0 0.0 0.00 0.00 0.00 71 1013.4
20210613140014 74 215 0.0 0.0 0.00 0.00 0.00 76 1013.6
20210613134703 73 215 0.0 0.0 0.00 0.00 0.00 79 1013.6
20210613133131 71 205 0.0 0.0 0.00 0.00 0.00 80 1013.5
20210613131633 70 202 0.0 0.0 0.00 0.00 0.00 80 1013.6